Weather History for Manhattan, KS

Change the Weather History Date:

Tuesday, September 2, 2014

  Actual Average Record
Temperature  
Mean Temperature 75 °F 73 °F  
Max Temperature 87 °F 86 °F 111 °F (2000)
Min Temperature 62 °F 60 °F 53 °F (2003)
Degree Days  
Heating Degree Days 0 0  
Month to date heating degree days 0 0  
Since 1 July heating degree days 1 3  
Cooling Degree Days 10 9  
Month to date cooling degree days 17 18  
Year to date cooling degree days 1395 1201  
Growing Degree Days 24 (Base 50)    
Moisture  
Dew Point 66 °F    
Average Humidity 74    
Maximum Humidity 100    
Minimum Humidity 48    
Precipitation  
Precipitation 0.00 in 0.15 in 0.30 in (2010)
Month to date precipitation 0.09 0.31  
Year to date precipitation 16.99 24.85  
Sea Level Pressure  
Sea Level Pressure 29.93 in    
Wind  
Wind Speed 4 mph (East)    
Max Wind Speed 14 mph    
Max Gust Speed 19 mph    
Visibility 10 miles    
Events      
T = Trace of Precipitation, MM = Missing Value Source: NWS Daily Summary

Daily Weather History Graph

Daily Weather History Graph

Search for Another Location

Airport:

Trip Planner

Search our weather history database for the weather conditions in past years. The results will help you decide how hot, cold, wet, or windy it might be!

Date:

Astronomy

Sep. 02, 2014 Rise Set
Actual Time 6:56 AM CDT 7:55 PM CDT
Civil Twilight 6:28 AM CDT 8:22 PM CDT
Nautical Twilight 5:56 AM CDT 8:55 PM CDT
Astronomical Twilight 5:22 AM CDT 9:29 PM CDT
Moon 2:38 PM CDT (9/2) 12:02 AM CDT (9/2)
Length of Visible Light 13h 54m
Length of Day
12h 59m
First Quarter, 53% of the Moon is Illuminated
Sep 2
First Quarter
Sep 8
Full
Sep 15
Last Quarter
Sep 24
New
Oct 1
First Quarter

Hourly Weather History & Observations

Time (CDT) Temp. Heat Index Dew Point Humidity Pressure Visibility Wind Dir Wind Speed Gust Speed Precip Events Conditions
12:52 AM 68.0 °F - 66.9 °F 96% 29.91 in 10.0 mi NNW 5.8 mph - N/A   Clear
1:52 AM 66.0 °F - 64.9 °F 96% 29.94 in 9.0 mi North 3.5 mph - N/A   Clear
2:52 AM 66.0 °F - 64.9 °F 96% 29.91 in 10.0 mi South 4.6 mph - N/A   Clear
3:52 AM 66.2 °F - 64.4 °F 94% 29.95 in 8.0 mi Calm Calm - N/A   Clear
4:52 AM 64.9 °F - 63.0 °F 93% 29.91 in 10.0 mi NNW 4.6 mph - N/A   Clear
5:52 AM 63.0 °F - 62.1 °F 97% 29.91 in 10.0 mi Calm Calm - N/A   Clear
6:52 AM 62.1 °F - 61.0 °F 96% 29.94 in 10.0 mi Calm Calm - N/A   Clear
7:52 AM 64.0 °F - 62.1 °F 93% 29.96 in 10.0 mi Calm Calm - N/A   Clear
8:52 AM 66.0 °F - 64.0 °F 93% 29.98 in 10.0 mi Calm Calm - N/A   Clear
9:52 AM 71.1 °F - 66.0 °F 84% 29.98 in 10.0 mi NE 5.8 mph - N/A   Clear
10:52 AM 75.9 °F - 64.9 °F 69% 29.98 in 10.0 mi NE 4.6 mph - N/A   Clear
11:52 AM 78.1 °F - 66.9 °F 68% 29.99 in 10.0 mi ENE 6.9 mph - N/A   Clear
12:52 PM 81.0 °F 82.5 °F 64.0 °F 56% 29.99 in 10.0 mi NE 3.5 mph - N/A   Clear
1:52 PM 84.9 °F 85.9 °F 63.0 °F 48% 29.97 in 10.0 mi NNE 5.8 mph - N/A   Clear
2:52 PM 84.9 °F 86.1 °F 64.0 °F 49% 29.96 in 10.0 mi Variable 3.5 mph - N/A   Clear
3:52 PM 86.0 °F 91.5 °F 71.1 °F 61% 29.92 in 10.0 mi South 8.1 mph - N/A   Scattered Clouds
4:52 PM 84.0 °F 87.8 °F 69.1 °F 61% 29.90 in 10.0 mi SSW 5.8 mph 18.4 mph N/A   Mostly Cloudy
5:52 PM 86.0 °F 88.8 °F 66.9 °F 53% 29.89 in 10.0 mi South 5.8 mph - N/A   Clear
6:52 PM 84.0 °F 86.5 °F 66.9 °F 56% 29.89 in 10.0 mi South 4.6 mph - N/A   Clear
7:52 PM 79.0 °F - 68.0 °F 69% 29.89 in 10.0 mi East 3.5 mph - N/A   Clear
8:52 PM 77.0 °F - 68.0 °F 74% 29.90 in 10.0 mi ESE 3.5 mph - N/A   Clear
9:52 PM 75.2 °F - 68.0 °F 78% 29.94 in 10.0 mi Calm Calm - N/A   Clear
10:52 PM 75.0 °F - 69.1 °F 82% 29.91 in 10.0 mi SE 5.8 mph - N/A   Clear
11:52 PM 73.9 °F - 69.1 °F 85% 29.91 in 10.0 mi SE 9.2 mph - N/A   Clear